Location: Newark
(3.0500°N, 36.0167°E)
Time: 16:12:06
(UTC+00:00)

Vanguard 2 Rocket - All Passes

Search period start: 23 August 2019 00:00
Search period end: 02 September 2019 00:00
Orbit: 553 x 3327 km, 32.9° (Epoch: 23 August)

Date Brightness Start Highest point End Pass type
(mag) Time Alt. Az. Time Alt. Az. Time Alt. Az.
23 Aug - 00:53:45 10° NW 01:02:42 22° N 01:14:50 10° NE visible
23 Aug - 03:13:00 10° NW 03:25:52 23° N 03:40:16 10° ENE visible
23 Aug - 05:30:27 10° NW 05:48:51 41° NNE 06:04:32 10° E daylight
23 Aug - 07:48:27 10° NW 08:08:32 84° NE 08:21:28 10° ESE daylight
23 Aug - 10:10:27 10° W 10:24:28 35° SW 10:33:23 10° SSE daylight
23 Aug - 19:25:35 10° SSW 19:29:40 27° SE 19:35:31 10° E night (unlit)
23 Aug - 21:36:53 10° WSW 21:43:00 52° NNW 21:53:46 10° NE visible
23 Aug - 23:52:42 10° WNW 00:00:26 23° NNW 00:11:34 10° NE visible
24 Aug - 02:11:38 10° NW 02:22:12 20° N 02:35:04 10° NE visible
24 Aug - 04:29:00 10° NW 04:45:35 33° NNE 05:01:45 10° E daylight
24 Aug - 06:46:06 10° NW 07:06:29 67° NNE 07:21:14 10° ESE daylight
24 Aug - 09:06:11 10° WNW 09:23:51 53° SW 09:34:50 10° SE daylight
24 Aug - 11:35:00 10° WSW 11:39:01 12° SW 11:42:27 10° SSW daylight
24 Aug - 18:29:06 10° SSE 18:30:31 11° SE 18:32:04 10° ESE night (unlit)
24 Aug - 20:37:47 10° WSW 20:43:02 79° NNW 20:52:10 10° NE night (unlit)
24 Aug - 22:52:10 10° WNW 22:58:52 26° NNW 23:09:06 10° NE visible
25 Aug - 01:10:27 10° NW 01:18:58 18° N 01:29:56 10° NE visible
25 Aug - 03:27:53 10° NNW 03:42:05 27° NNE 03:57:40 10° ENE daylight
25 Aug - 05:44:17 10° NW 06:03:54 53° NNE 06:20:12 10° ESE daylight
25 Aug - 08:02:45 10° WNW 08:22:39 74° SW 08:35:38 10° SE daylight
25 Aug - 10:27:15 10° W 10:38:28 23° SW 10:46:22 10° S daylight
25 Aug - 19:39:07 10° SW 19:43:37 57° SE 19:50:43 10° ENE night (unlit)
25 Aug - 21:52:08 10° W 21:57:58 31° NNW 22:07:19 10° NE visible
26 Aug - 00:09:27 10° NW 00:16:24 18° N 00:25:38 10° NNE visible
26 Aug - 02:27:06 10° NNW 02:38:36 22° NNE 02:52:22 10° ENE visible
26 Aug - 04:42:58 10° NW 05:00:55 42° NNE 05:18:06 10° E daylight
26 Aug - 07:00:05 10° NW 07:20:50 87° NE 07:35:47 10° SE daylight
26 Aug - 09:21:49 10° W 09:37:44 37° SW 09:48:17 10° SSE daylight
26 Aug - 18:40:59 10° SSW 18:44:31 25° SE 18:49:10 10° E night (unlit)
26 Aug - 20:52:33 10° W 20:57:38 42° NNW 21:06:02 10° NE night (unlit)
26 Aug - 23:08:40 10° NW 23:14:30 18° N 23:22:30 10° NNE visible
27 Aug - 01:26:34 10° NNW 01:35:22 18° N 01:46:23 10° NE visible
27 Aug - 03:42:08 10° NNW 03:57:46 33° NNE 04:14:44 10° E daylight
27 Aug - 05:58:07 10° NW 06:18:28 69° NE 06:35:12 10° ESE daylight
27 Aug - 08:17:37 10° WNW 08:36:35 54° SW 08:49:25 10° SE daylight
27 Aug - 10:45:54 10° WSW 10:52:54 15° SW 10:58:30 10° S daylight
27 Aug - 17:44:40 10° SSE 17:45:20 10° SE 17:46:02 10° SE night (unlit)
27 Aug - 19:53:21 10° WSW 19:57:52 68° NNW 20:05:05 10° NE night (unlit)
27 Aug - 22:08:11 10° WNW 22:13:17 20° NNW 22:20:31 10° NNE visible
28 Aug - 00:26:12 10° NNW 00:32:36 15° N 00:40:40 10° NE visible
28 Aug - 02:41:43 10° NNW 02:54:36 26° NNE 03:09:59 10° ENE visible
28 Aug - 04:56:47 10° NW 05:15:45 55° NNE 05:33:43 10° ESE daylight
28 Aug - 07:14:26 10° WNW 07:34:54 72° SW 07:49:54 10° SE daylight
28 Aug - 09:38:36 10° W 09:51:51 25° SW 10:01:22 10° SSE daylight
28 Aug - 18:54:32 10° SW 18:58:35 60° SE 19:04:17 10° ENE night (unlit)
28 Aug - 21:08:03 10° WNW 21:12:38 24° NNW 21:19:22 10° NNE night (unlit)
28 Aug - 23:25:50 10° NNW 23:30:26 14° N 23:36:08 10° NNE visible
29 Aug - 01:41:42 10° NNW 01:51:34 20° NNE 02:03:58 10° ENE visible
29 Aug - 03:56:01 10° NW 04:12:53 43° NNE 04:31:07 10° E daylight
29 Aug - 06:12:09 10° NW 06:32:43 89° NE 06:49:41 10° SE daylight
29 Aug - 08:33:16 10° W 08:50:34 39° SW 09:02:52 10° SSE daylight
29 Aug - 17:56:12 10° SSW 17:59:31 25° SE 18:03:23 10° E visible
29 Aug - 20:08:17 10° W 20:12:31 33° NNW 20:18:48 10° NE night (unlit)
29 Aug - 22:25:19 10° NNW 22:28:54 13° N 22:33:18 10° NNE visible
30 Aug - 00:42:03 10° NNW 00:48:50 15° NNE 00:57:17 10° NE visible
30 Aug - 02:55:46 10° NNW 03:10:02 33° NNE 03:27:10 10° E visible
30 Aug - 05:10:38 10° NW 05:30:11 72° NE 05:48:41 10° ESE daylight
30 Aug - 07:29:20 10° WNW 07:48:54 54° SW 08:03:38 10° SE daylight
30 Aug - 09:57:00 10° WSW 10:06:27 17° SW 10:13:55 10° S daylight
30 Aug - 16:59:02 10° SSE 17:00:13 11° SE 17:01:24 10° SE visible
30 Aug - 19:08:53 10° WSW 19:12:54 56° NNW 19:18:32 10° NE night (unlit)
30 Aug - 21:24:41 10° NW 21:27:57 14° NNW 21:32:03 10° NNE night (unlit)
30 Aug - 23:42:55 10° NNW 23:46:33 12° N 23:50:46 10° NNE visible
31 Aug - 01:55:59 10° NNW 02:07:19 25° NNE 02:21:49 10° ENE visible
31 Aug - 04:09:48 10° NW 04:27:30 56° NE 04:46:43 10° ESE daylight
31 Aug - 06:26:32 10° WNW 06:46:47 71° SW 07:03:44 10° SE daylight
31 Aug - 08:50:02 10° W 09:04:52 27° SW 09:16:02 10° SSE daylight
31 Aug - 18:09:49 10° SW 18:13:42 67° SE 18:18:24 10° ENE visible
31 Aug - 20:24:11 10° WNW 20:27:30 17° NNW 20:31:49 10° NNE night (unlit)
01 Sep - 00:56:44 10° NNW 01:04:50 18° NNE 01:15:12 10° ENE visible
01 Sep - 03:09:34 10° NW 03:24:55 43° NNE 03:43:35 10° E visible
01 Sep - 05:24:42 10° NW 05:44:21 89° SW 06:03:06 10° SE daylight
01 Sep - 07:45:00 10° W 08:03:01 39° SW 08:17:05 10° SSE daylight
01 Sep - 10:18:18 10° SW 10:21:42 11° SSW 10:24:49 10° SSW daylight
01 Sep - 17:11:05 10° SSW 17:14:35 28° SE 17:18:08 10° E visible
01 Sep - 19:24:03 10° W 19:27:33 24° NNW 19:32:04 10° NNE night (unlit)
